Regional Weather Roundup
Issued by NWS

Home | Current Version | Previous Version | Text Only | Print | Product List | Glossary Off
Versions: 1 2 3 4 5 6 7 8 9 10 11 12 13 14 15 16 17 18 19 20 21 22 23 24 25 26 27 28 29 30 31 32 33 34 35 36 37 38 39 40 41 42 43 44 45 46 47 48 49 50

000
ASUS43 KDMX 300007
RWRIA

WEATHER ROUNDUP FOR IOWA
NATIONAL WEATHER SERVICE DES MOINES IA
700 PM CDT SUN MAR 29 2015

NOTE: "FAIR" INDICATES FEW OR NO CLOUDS BELOW 12,000 FEET WITH NO
SIGNIFICANT WEATHER AND/OR OBSTRUCTIONS TO VISIBILITY.

* - THESE STATIONS ARE NOT NWS STATIONS...THUS NOT UNDER NWS
QUALITY CONTROL.  THEY ALSO DO NOT REPORT WEATHER SUCH
AS PRECIPITATION OR FOG.

IAZ001>003-012>014-020>022-031>034-043>046-300100-
   NORTHWEST IOWA

CITY           SKY/WX    TMP DP  RH WIND       PRES   REMARKS
CARROLL *      CLEAR     57  19  23 NW25      30.01R
CHEROKEE *     CLEAR     57  21  25 NW15G26   30.01R
DENISON *      CLEAR     57  21  24 NW15G22   30.01R
LE MARS *      CLEAR     59  21  23 NW20G29   30.04R
ORANGE CITY *  CLEAR     57  16  19 NW18G25   30.02R
SHELDON *      CLEAR     55  21  26 NW20G30   30.00R
SIOUX CITY     CLEAR     60  21  22 NW18G31   30.03S
6HR MIN TEMP:  50; 6HR MAX TEMP:  64; 6HR PCP: TRACE;

SPENCER        CLEAR     56  23  27 NW21G28   29.99R
6HR MIN TEMP:  53; 6HR MAX TEMP:  61;

STORM LAKE *   CLEAR     55  23  28 NW18      30.01R
$$

IAZ055>058-069>071-079>083-090>094-300100-
   SOUTHWEST IOWA

CITY           SKY/WX    TMP DP  RH WIND       PRES   REMARKS
ATLANTIC *     CLEAR     59  23  25 NW18G26   30.03R
AUDUBON *      CLEAR     57  18  21 NW10G21   30.03R
CLARINDA *     CLEAR     59  30  33 NW13      30.06R
COUNCIL BLFS * CLEAR     59  23  25 NW16G30   30.05R
CRESTON *      CLEAR     57  28  33 NW18G26   30.02R
HARLAN  *      CLEAR     57  23  26 NW18G26   30.07R
LAMONI         CLEAR     57  34  41 NW17G26   30.01R
6HR MIN TEMP:  56; 6HR MAX TEMP:  64;

RED OAK *      CLEAR     59  27  29 N9        30.05R
SHENANDOAH *   CLEAR     59  27  29 NW13      30.06R
$$

IAZ047>049-059>061-072>074-084-300100-
   CENTRAL IOWA

CITY           SKY/WX    TMP DP  RH WIND       PRES   REMARKS
AMES           CLEAR     57  22  25 NW15G24   29.96R
6HR MIN TEMP:  53; 6HR MAX TEMP:  61;

ANKENY *       CLEAR     59  21  23 NW20G28   29.97R
CHARITON *     CLEAR     59  28  31 NW18G30   29.98R
DES MOINES     CLEAR     60  19  20 NW17G26   29.98R
6HR MIN TEMP:  55; 6HR MAX TEMP:  63;

GRINNELL*      CLEAR     55  25  31 NW17G26   29.94R
KNOXVILLE *    CLEAR     59  23  25 NW20G29   29.95R
MARSHALLTOWN   CLEAR     55  27  34 NW22G30   29.93R
6HR MIN TEMP:  55; 6HR MAX TEMP:  60;

PELLA *        CLEAR     58  32  36 NW17G23   29.97R
PERRY *          N/A     58  25  27 NW18G24   29.99R
$$

IAZ004>006-015-016-023>025-035-036-300100-
   NORTH CENTRAL IOWA

CITY           SKY/WX    TMP DP  RH WIND       PRES   REMARKS
ALGONA *       CLEAR     55  25  30 NW17G28   29.96R
CLARION *      CLEAR     54  30  40 NW22G28   29.95R
ESTHERVILLE    PTCLDY    54  24  31 NW23G35   29.97R
6HR MIN TEMP:  49; 6HR MAX TEMP:  58;

FORT DODGE *   CLEAR     55  27  33 NW10G18   29.98R
MASON CITY     CLEAR     51  31  46 NW18G32   29.92R
6HR MIN TEMP:  48; 6HR MAX TEMP:  57;

FOREST CITY *  CLEAR     52  28  40 NW16G30   29.93R
IOWA FALLS *     N/A     53  29  39 NW18G28   29.94R
$$

IAZ007>011-017>019-026>030-037>042-050>054-066-300100-
   NORTHEAST IOWA

CITY           SKY/WX    TMP DP  RH WIND       PRES   REMARKS
CEDAR RAPIDS   CLEAR     53  29  39 NW23G30   29.88R
6HR MIN TEMP:  53; 6HR MAX TEMP:  61;

CHARLES CITY * CLEAR     50  34  53 NW26      29.90R
CLINTON *      CLEAR     50  37  62 NW15G24   29.88R
DECORAH *      CLEAR     46  32  57 NW13G24   29.84R
DUBUQUE        CLEAR     49  36  61 NW20G29   29.84R
6HR MIN TEMP:  38; 6HR MAX TEMP:  54;

MONTICELLO *   CLEAR     52  32  46 NW16      29.86R
OELWEIN *      CLEAR     50  32  50 NW25G37   29.88R
WATERLOO       CLEAR     54  26  34 NW17G31   29.89R
6HR MIN TEMP:  51; 6HR MAX TEMP:  58;

$$

IAZ064-065-067-068-078-300100-
   EAST CENTRAL IOWA

CITY           SKY/WX    TMP DP  RH WIND       PRES   REMARKS
DAVENPORT      CLEAR     52  37  56 NW15G25   29.88R
6HR MIN TEMP:  44; 6HR MAX TEMP:  56;

IOWA CITY      CLEAR     56  29  35 NW17G32   29.91R
6HR MIN TEMP:  52; 6HR MAX TEMP:  60;

MT. PLEASANT * CLEAR     56  32  39 NW14G24   29.93R
MUSCATINE *    CLEAR     57  34  41 NW20G29   29.90R
QUAD CITIES    CLEAR     54  36  50 NW20G30   29.87R
6HR MIN TEMP:  43; 6HR MAX TEMP:  58;

$$

IAZ062-063-075>077-085>089-095>099-300100-
   SOUTHEAST IOWA

CITY           SKY/WX    TMP DP  RH WIND       PRES   REMARKS
BURLINGTON     PTCLDY    57  40  52 NW14      29.91R
6HR MIN TEMP:  48; 6HR MAX TEMP:  59;

FAIRFIELD *    CLEAR     57  32  38 NW18G26   29.94R
FORT MADISON * CLEAR     55  41  58 W15G21    29.93R
KEOKUK *       CLEAR     57  39  51 NW15G23   29.93R
OSKALOOSA *      N/A     56  28  33 NW22G30   29.95R
CENTERVILLE *  CLEAR     57  34  41 NW14G20   29.99R
OTTUMWA        CLEAR     57  28  33 NW15      29.95R
6HR MIN TEMP:  56; 6HR MAX TEMP:  60;

WASHINGTON *   CLEAR     57  32  38 NW20G25   29.92R
$$

ABBREVIATIONS USED IN REMARKS
   TC - TEMPERATURES IN CELSIUS
  WCI - WIND CHILL INDEX
   HX - HEAT INDEX
  VSB - VISIBILITY
$$




USA.gov is the U.S. government's official web portal to all federal, state and local government web resources and services.